Thermal, CA

8:32 AM PDT on April 24, 2018 (GMT -0700)
Desert Resorts Regional

Weather History for KTRM - July, 2013

Change the Weather History Date:

Sunday, July 7, 2013

  Actual Average Record
Temperature  
Mean Temperature 94 °F 90 °F  
Max Temperature 113 °F 107 °F 121 °F (2017)
Min Temperature 75 °F 73 °F 63 °F (1997)
Degree Days  
Heating Degree Days 0 0  
Month to date heating degree days 0 0  
Since 1 June heating degree days 0 0  
Since 1 July heating degree days 0 0  
Cooling Degree Days 29 25  
Month to date cooling degree days 204 171  
Year to date cooling degree days 1834 1452  
Since 1 June cooling degree days 927 779  
Growing Degree Days 43 (Base 50)    
Moisture  
Dew Point 51 °F    
Average Humidity 33    
Maximum Humidity 54    
Minimum Humidity 12    
Precipitation  
Precipitation 0.00 in 0.01 in 0.03 in (1968)
Month to date precipitation 0.00 0.01  
Year to date precipitation 0.44 1.83  
Since 1 July precipitation 0.00  
Snow  
Snow 0.00 in - - ()
Month to date snowfall 0.0  
Year to date snowfall 0.0  
Snow Depth 0.00 in    
Sea Level Pressure  
Sea Level Pressure 29.62 in    
Wind  
Wind Speed 5 mph (NNE)    
Max Wind Speed 12 mph    
Max Gust Speed 20 mph    
Visibility 10 miles    
Events      
T = Trace of Precipitation, MM = Missing Value Source: NWS Daily Summary

Daily Weather History Graph

Daily Weather History Graph

Search for Another Location

Airport or City:

Astronomy

Jul. 07, 2013 Rise Set
Actual Time 5:41 AM PDT 7:58 PM PDT
Civil Twilight 5:12 AM PDT 8:26 PM PDT
Nautical Twilight 4:37 AM PDT 9:01 PM PDT
Astronomical Twilight 3:58 AM PDT 9:39 PM PDT
Moon 5:17 AM PDT (7/7) 7:28 PM PDT (7/7)
Length of Visible Light 15h 14m
Length of Day
14h 17m
Waning Crescent, 0% of the Moon is Illuminated
Jul 7
Waning Crescent
Jul 8
New
Jul 15
First Quarter
Jul 22
Full
Jul 29
Last Quarter

Hourly Weather History & Observations

Time (PDT) Temp. Heat Index Dew Point Humidity Pressure Visibility Wind Dir Wind Speed Gust Speed Precip Events Conditions
12:52 AM 91.9 °F 90.3 °F 55.9 °F 30% 29.61 in 10.0 mi NW 11.5 mph - N/A   Clear
1:52 AM 90.0 °F 88.6 °F 57.0 °F 33% 29.61 in 10.0 mi NNW 9.2 mph - N/A   Clear
2:52 AM 89.1 °F 87.7 °F 57.0 °F 34% 29.60 in 10.0 mi NW 9.2 mph - N/A   Clear
3:52 AM 88.0 °F 86.5 °F 55.9 °F 34% 29.61 in 10.0 mi NW 4.6 mph - N/A   Clear
4:52 AM 84.0 °F 83.0 °F 55.9 °F 38% 29.62 in 10.0 mi North 3.5 mph - N/A   Clear
5:52 AM 75.9 °F - 57.9 °F 54% 29.63 in 10.0 mi Calm Calm - N/A   Clear
6:52 AM 82.9 °F 83.7 °F 62.1 °F 49% 29.65 in 10.0 mi Calm Calm - N/A   Clear
7:52 AM 87.1 °F 87.0 °F 61.0 °F 41% 29.67 in 10.0 mi South 4.6 mph - N/A   Clear
8:52 AM 91.9 °F 93.3 °F 64.0 °F 39% 29.69 in 10.0 mi SE 6.9 mph - N/A   Clear
9:52 AM 95.0 °F 95.2 °F 61.0 °F 32% 29.68 in 10.0 mi SSE 8.1 mph - N/A   Clear
10:52 AM 99.0 °F 97.7 °F 55.9 °F 24% 29.68 in 10.0 mi SE 4.6 mph - N/A   Clear
11:52 AM 102.9 °F 101.4 °F 54.0 °F 20% 29.66 in 10.0 mi Calm Calm - N/A   Clear
12:52 PM 107.1 °F 105.4 °F 53.1 °F 17% 29.64 in 10.0 mi East 4.6 mph - N/A   Clear
1:52 PM 109.0 °F - 48.9 °F 14% 29.61 in 10.0 mi Calm Calm - N/A   Clear
2:52 PM 111.0 °F - 50.0 °F 13% 29.59 in 10.0 mi South 5.8 mph - N/A   Clear
3:52 PM 111.9 °F - 46.9 °F 12% 29.58 in 10.0 mi Calm Calm - N/A   Clear
4:52 PM 111.0 °F - 46.0 °F 11% 29.56 in 10.0 mi ESE 5.8 mph - N/A   Clear
5:52 PM 109.9 °F - 46.9 °F 12% 29.55 in 10.0 mi SE 4.6 mph - N/A   Clear
6:52 PM 107.1 °F - 48.9 °F 14% 29.56 in 10.0 mi SSE 4.6 mph - N/A   Clear
7:52 PM 105.1 °F - 39.0 °F 10% 29.58 in 10.0 mi North 6.9 mph - N/A   Clear
8:52 PM 102.9 °F - 35.1 °F 10% 29.61 in 10.0 mi NNW 13.8 mph 19.6 mph N/A   Clear
9:52 PM 100.0 °F - 36.0 °F 11% 29.64 in 10.0 mi NNW 17.3 mph - N/A   Clear
10:52 PM 97.0 °F - 39.0 °F 13% 29.65 in 10.0 mi NNW 15.0 mph - N/A   Clear
11:52 PM 96.1 °F - 41.0 °F 15% 29.66 in 10.0 mi NNW 10.4 mph - N/A   Clear